DW8131 Weather Reports


time (UTC)temp
F
wind
direction
speed
knots
gust
knots
rain 1hr
in
rain 24hr
in
rain mn
in
humidity
%
barometer
mb
20260502123028 57 360 11.3 0.0 0.00 0.00 0.00 82 1014.1
20260502121531 57 360 11.3 0.0 0.00 0.00 0.00 81 1014.1
20260502114524 57 360 12.2 0.0 0.00 0.00 0.00 82 1014.4
20260502113026 56 360 12.2 0.0 0.00 0.00 0.00 83 1014.7
20260502111522 56 168 12.2 0.0 0.00 0.00 0.00 83 1014.8
20260502110020 56 161 12.2 0.0 0.00 0.00 0.00 83 1015.0
20260502104525 56 184 12.2 0.0 0.00 0.00 0.00 82 1015.0
20260502103018 56 186 13.0 0.0 0.00 0.00 0.00 82 1015.2
20260502101515 56 360 12.2 0.0 0.00 0.00 0.00 82 1015.4
20260502091515 55 180 11.3 0.0 0.00 0.00 0.00 83 1016.0
20260502070116 54 150 10.4 0.0 0.00 0.00 0.00 84 1016.5
20260502064557 54 173 10.4 0.0 0.00 0.00 0.00 84 1016.6
20260502063111 54 159 11.3 0.0 0.00 0.00 0.00 83 1016.6
20260502061554 54 159 11.3 0.0 0.00 0.00 0.00 82 1016.8
20260502060056 54 170 10.4 0.0 0.00 0.00 0.00 82 1016.9
20260502054602 54 166 10.4 0.0 0.00 0.00 0.00 82 1017.0
20260502053047 53 144 11.3 0.0 0.00 0.00 0.00 81 1017.1
20260502051548 52 360 11.3 0.0 0.00 0.00 0.00 81 1017.1
20260502050043 52 166 9.6 0.0 0.00 0.00 0.00 81 1017.4
20260502044542 51 169 8.7 0.0 0.00 0.00 0.00 80 1017.4
20260502043051 51 155 8.7 0.0 0.00 0.00 0.00 81 1017.5
20260502041605 51 154 7.0 0.0 0.00 0.00 0.00 82 1017.7
20260502040050 51 146 7.0 0.0 0.00 0.00 0.00 84 1017.7
20260502034544 51 153 8.7 0.0 0.00 0.00 0.00 85 1017.8
20260502033034 0 0.0 0.0 0.00 0.00 0.00 1018.2
20260502031529 0 0.0 0.0 0.00 0.00 0.00 1018.5
20260502030030 0 0.0 0.0 0.00 0.00 0.00 1018.9
20260502024520 0 0.0 0.0 0.00 0.00 0.00 1018.9
20260502023027 51 149 9.6 0.0 0.00 0.00 0.00 85 1019.0
20260502021514 51 155 7.0 0.0 0.00 0.00 0.00 85 1019.2
20260502020013 51 162 6.1 0.0 0.00 0.00 0.00 85 1019.5
20260502014511 51 158 6.1 0.0 0.00 0.00 0.00 85 1019.7
20260502013009 51 159 7.0 0.0 0.00 0.00 0.00 86 1019.8
20260502011507 51 161 6.1 0.0 0.00 0.00 0.00 85 1020.0
20260502010005 51 151 6.1 0.0 0.00 0.00 0.00 85 1020.1
20260502004503 51 130 6.1 0.0 0.00 0.00 0.00 85 1020.4
20260502003001 51 152 7.0 0.0 0.00 0.00 0.00 84 1020.5
20260502001605 52 158 7.0 0.0 0.00 0.00 0.00 83 1020.6
20260502000108 52 149 7.8 0.0 0.00 0.00 0.00 82 1020.6
20260501234554 52 155 8.7 0.0 0.00 0.00 0.00 82 1020.7
20260501233109 52 156 7.8 0.0 0.00 0.00 0.00 80 1020.8
20260501231611 52 153 7.8 0.0 0.00 0.00 0.00 79 1021.0
20260501230114 52 177 7.0 0.0 0.00 0.00 0.00 77 1021.3
20260501224556 53 169 7.0 0.0 0.00 0.00 0.00 75 1021.4
20260501223052 53 163 7.8 0.0 0.00 0.00 0.00 73 1021.4
20260501221549 54 163 7.8 0.0 0.00 0.00 0.00 71 1021.6
20260501220044 54 153 7.8 0.0 0.00 0.00 0.00 70 1021.4
20260501214543 54 360 7.0 0.0 0.00 0.00 0.00 69 1021.5
20260501213041 54 158 6.1 0.0 0.00 0.00 0.00 68 1021.7
20260501211540 54 147 7.8 0.0 0.00 0.00 0.00 67 1021.9
20260501210040 55 161 7.8 0.0 0.00 0.00 0.00 69 1022.0
20260501204543 54 156 7.8 0.0 0.00 0.00 0.00 71 1022.1
20260501203039 54 159 6.1 0.0 0.00 0.00 0.00 71 1022.3
20260501201538 54 150 4.3 0.0 0.00 0.00 0.00 71 1022.4
20260501200035 54 155 5.2 0.0 0.00 0.00 0.00 70 1022.5
20260501194533 54 151 5.2 0.0 0.00 0.00 0.00 70 1022.6
20260501193037 55 151 6.1 0.0 0.00 0.00 0.00 72 1022.8
20260501191533 55 147 5.2 0.0 0.00 0.00 0.00 72 1023.0
20260501190032 55 142 4.3 0.0 0.00 0.00 0.00 71 1023.1
20260501184530 54 138 2.6 0.0 0.00 0.00 0.00 72 1023.2
20260501183029 54 109 2.6 0.0 0.00 0.00 0.00 78 1023.2
20260501181527 54 159 3.5 0.0 0.00 0.00 0.00 81 1023.2
20260501180027 54 159 6.1 0.0 0.00 0.00 0.00 82 1023.3
20260501174526 54 167 6.1 0.0 0.00 0.00 0.00 84 1023.3
20260501173026 54 165 5.2 0.0 0.00 0.00 0.00 84 1023.5
20260501171525 54 173 5.2 0.0 0.00 0.00 0.00 84 1023.6
20260501170022 54 184 6.1 0.0 0.00 0.00 0.00 85 1023.8
20260501164521 54 177 5.2 0.0 0.00 0.00 0.00 85 1023.8
20260501163020 54 183 6.1 0.0 0.00 0.00 0.00 84 1023.9
20260501161518 55 175 4.3 0.0 0.00 0.00 0.00 83 1024.1
20260501160016 55 182 4.3 0.0 0.00 0.00 0.00 80 1024.4
20260501154515 55 175 3.5 0.0 0.00 0.00 0.00 79 1024.5
20260501153013 55 177 3.5 0.0 0.00 0.00 0.00 79 1024.9
20260501151512 55 172 3.5 0.0 0.00 0.00 0.00 79 1025.1
20260501150014 55 175 4.3 0.0 0.00 0.00 0.00 79 1025.2
20260501144509 54 171 5.2 0.0 0.00 0.00 0.00 81 1025.5
20260501143006 56 170 5.2 0.0 0.00 0.00 0.00 77 1025.5
20260501141504 59 199 5.2 0.0 0.00 0.00 0.00 69 1025.8
20260501140004 58 195 4.3 0.0 0.00 0.00 0.00 71 1026.0
20260501134503 59 216 5.2 0.0 0.00 0.00 0.00 68 1026.0
20260501133003 58 218 5.2 0.0 0.00 0.00 0.00 69 1026.5